Torna al catalogo

STARLINK-1797

AttivoComunicazioniVLEO
NORAD 46698·PAYLOAD·🇺🇸 United States

Lanciato Oct 18, 2020 da Cape Canaveral Space Force Station

Loading…

Prossimi Passaggi (prossime 24 ore)

TLE

AggiornatoSource: CelesTrak SupGP

Epoca: Sep 14, 2026, 21:35 UTC

1 46698C 20073AE  26257.89979167  .00282770  00000+0  69553-3 0  2576
2 46698  53.0299 351.7920 0009806 346.7312  17.9681 15.95085456    10

Traccia STARLINK-1797 in tempo reale con AllMySat

Download on the App Store